Year,Month,Day,Hour,Minute,Value (Times are PST for temperature in C)
2008,02,22,00,00,3.30
2008,02,22,00,01,3.30
2008,02,22,00,02,3.30
2008,02,22,00,03,3.30
2008,02,22,00,04,3.30
2008,02,22,00,05,3.30
2008,02,22,00,06,3.30
2008,02,22,00,07,3.30
2008,02,22,00,08,3.30
2008,02,22,00,09,3.30
2008,02,22,00,10,3.30
2008,02,22,00,11,3.30
2008,02,22,00,12,3.30
2008,02,22,01,02,3.20
2008,02,22,01,03,3.20
2008,02,22,01,04,3.20
2008,02,22,01,05,3.20
2008,02,22,01,06,3.20
2008,02,22,01,07,3.20
2008,02,22,01,08,3.20
2008,02,22,01,09,3.20
2008,02,22,01,10,3.20
2008,02,22,01,11,3.20
2008,02,22,01,12,3.20
2008,02,22,01,13,3.20
2008,02,22,01,14,3.20
2008,02,22,01,15,3.20
2008,02,22,01,16,3.20
2008,02,22,01,17,3.10
2008,02,22,01,18,3.10
2008,02,22,01,19,3.10
2008,02,22,01,20,3.10
2008,02,22,01,21,3.10
2008,02,22,01,22,3.10
2008,02,22,01,23,3.10
2008,02,22,01,24,3.10
2008,02,22,01,25,3.10
2008,02,22,01,26,3.10
2008,02,22,01,27,3.10
2008,02,22,01,28,3.10
2008,02,22,01,29,3.10
2008,02,22,01,30,3.10
2008,02,22,01,31,3.10
2008,02,22,01,32,3.10
2008,02,22,01,33,3.10
2008,02,22,01,34,3.10
2008,02,22,01,35,3.10
2008,02,22,01,36,2.90
2008,02,22,01,37,2.90
2008,02,22,01,38,2.90
2008,02,22,01,39,2.90
2008,02,22,01,40,2.90
2008,02,22,01,41,2.90
2008,02,22,01,42,2.90
2008,02,22,01,43,2.90
2008,02,22,01,44,2.90
2008,02,22,01,45,2.90
2008,02,22,01,46,2.90
2008,02,22,01,47,2.90
2008,02,22,01,48,2.90
2008,02,22,01,49,2.90
2008,02,22,01,50,2.90
2008,02,22,01,51,2.90
2008,02,22,01,52,2.90
2008,02,22,01,53,2.90
2008,02,22,01,54,2.90
2008,02,22,01,55,2.90
2008,02,22,01,56,2.90
2008,02,22,01,57,2.90
2008,02,22,01,58,2.90
2008,02,22,01,59,2.90
2008,02,22,02,00,2.90
2008,02,22,02,01,2.90
2008,02,22,02,02,2.90
2008,02,22,02,03,2.90
2008,02,22,02,04,2.90
2008,02,22,02,05,2.90
2008,02,22,02,06,2.90
2008,02,22,02,07,2.90
2008,02,22,02,08,2.90
2008,02,22,02,09,2.90
2008,02,22,02,10,2.90
2008,02,22,02,11,2.80
2008,02,22,02,12,2.80
2008,02,22,02,13,2.80
2008,02,22,02,14,2.80
2008,02,22,02,15,2.80
2008,02,22,02,16,2.80
2008,02,22,02,17,2.80
2008,02,22,02,18,2.80
2008,02,22,02,19,2.80
2008,02,22,02,20,2.80
2008,02,22,02,21,2.80
2008,02,22,02,22,2.80
2008,02,22,02,23,2.80
2008,02,22,02,24,2.80
2008,02,22,02,25,2.80
2008,02,22,02,26,2.80
2008,02,22,02,27,2.80
2008,02,22,02,28,2.90
2008,02,22,02,29,2.90
2008,02,22,02,30,2.90
2008,02,22,02,31,2.90
2008,02,22,02,32,2.90
2008,02,22,02,33,2.90
2008,02,22,02,34,2.90
2008,02,22,02,35,2.90
2008,02,22,02,36,2.90
2008,02,22,02,37,2.90
2008,02,22,02,38,2.90
2008,02,22,02,39,2.90
2008,02,22,02,40,2.90
2008,02,22,02,41,2.90
2008,02,22,02,42,2.90
2008,02,22,02,43,2.90
2008,02,22,02,44,2.90
2008,02,22,02,45,2.90
2008,02,22,02,46,2.90
2008,02,22,02,47,3.00
2008,02,22,02,48,3.10
2008,02,22,02,49,3.10
2008,02,22,02,50,3.10
2008,02,22,02,51,3.10
2008,02,22,02,52,3.10
2008,02,22,02,53,3.10
2008,02,22,02,54,3.10
2008,02,22,02,55,3.10
2008,02,22,02,56,3.10
2008,02,22,02,57,3.10
2008,02,22,02,58,3.10
2008,02,22,02,59,3.10
2008,02,22,03,00,3.10
2008,02,22,03,01,3.20
2008,02,22,03,02,3.20
2008,02,22,03,03,3.20
2008,02,22,03,04,3.20
2008,02,22,03,05,3.20
2008,02,22,03,06,3.20
2008,02,22,03,07,3.20
2008,02,22,03,08,3.20
2008,02,22,03,09,3.20
2008,02,22,03,10,3.20
2008,02,22,03,11,3.20
2008,02,22,03,12,3.20
2008,02,22,03,13,3.20
2008,02,22,03,14,3.20
2008,02,22,03,15,3.20
2008,02,22,03,16,3.20
2008,02,22,03,17,3.20
2008,02,22,03,18,3.20
2008,02,22,03,19,3.20
2008,02,22,03,20,3.20
2008,02,22,03,21,3.20
2008,02,22,03,22,3.20
2008,02,22,03,23,3.20
2008,02,22,03,24,3.20
2008,02,22,03,25,3.20
2008,02,22,03,26,3.20
2008,02,22,03,27,3.20
2008,02,22,03,28,3.20
2008,02,22,03,29,3.10
2008,02,22,03,30,3.10
2008,02,22,03,31,3.10
2008,02,22,03,32,3.10
2008,02,22,03,33,3.10
2008,02,22,03,34,3.10
2008,02,22,03,35,3.10
2008,02,22,03,36,3.10
2008,02,22,03,37,3.10
2008,02,22,03,38,3.10
2008,02,22,03,39,3.10
2008,02,22,03,40,3.10
2008,02,22,03,41,3.10
2008,02,22,03,42,3.10
2008,02,22,03,43,3.10
2008,02,22,03,44,3.10
2008,02,22,03,45,3.10
2008,02,22,03,46,3.10
2008,02,22,03,47,3.10
2008,02,22,03,48,3.10
2008,02,22,03,49,3.10
2008,02,22,03,50,3.10
2008,02,22,03,51,3.10
2008,02,22,03,52,3.10
2008,02,22,03,53,3.10
2008,02,22,03,54,3.10
2008,02,22,03,55,3.10
2008,02,22,03,56,3.10
2008,02,22,03,57,3.10
2008,02,22,03,58,3.10
2008,02,22,03,59,3.10
2008,02,22,04,00,3.10
2008,02,22,04,01,3.10
2008,02,22,04,02,3.10
2008,02,22,04,03,3.10
2008,02,22,04,04,3.10
2008,02,22,04,05,3.10
2008,02,22,04,06,3.10
2008,02,22,04,07,3.10
2008,02,22,04,08,3.10
2008,02,22,04,09,3.10
2008,02,22,04,10,3.10
2008,02,22,04,11,3.10
2008,02,22,04,12,3.10
2008,02,22,04,13,3.10
2008,02,22,04,14,3.10
2008,02,22,04,15,3.10
2008,02,22,04,16,3.10
2008,02,22,04,17,3.10
2008,02,22,04,18,3.10
2008,02,22,04,19,3.10
2008,02,22,04,20,3.10
2008,02,22,04,21,3.10
2008,02,22,04,22,3.10
2008,02,22,04,23,3.20
2008,02,22,04,24,3.20
2008,02,22,04,25,3.20
2008,02,22,04,26,3.20
2008,02,22,04,27,3.20
2008,02,22,04,28,3.20
2008,02,22,04,29,3.20
2008,02,22,04,30,3.20
2008,02,22,04,31,3.20
2008,02,22,04,32,3.20
2008,02,22,04,33,3.20
2008,02,22,04,34,3.30
2008,02,22,04,35,3.30
2008,02,22,04,36,3.30
2008,02,22,04,37,3.30
2008,02,22,04,38,3.30
2008,02,22,04,39,3.30
2008,02,22,04,40,3.30
2008,02,22,04,41,3.30
2008,02,22,04,42,3.30
2008,02,22,04,43,3.30
2008,02,22,04,44,3.30
2008,02,22,04,45,3.30
2008,02,22,04,46,3.30
2008,02,22,04,47,3.30
2008,02,22,04,48,3.30
2008,02,22,04,49,3.30
2008,02,22,04,50,3.40
2008,02,22,04,51,3.40
2008,02,22,04,52,3.40
2008,02,22,04,53,3.40
2008,02,22,04,54,3.40
2008,02,22,04,55,3.40
2008,02,22,04,56,3.40
2008,02,22,04,57,3.40
2008,02,22,04,58,3.40
2008,02,22,04,59,3.40
2008,02,22,05,00,3.50
2008,02,22,05,01,3.50
2008,02,22,05,02,3.50
2008,02,22,05,03,3.50
2008,02,22,05,04,3.50
2008,02,22,05,05,3.50
2008,02,22,05,06,3.50
2008,02,22,05,07,3.50
2008,02,22,05,08,3.60
2008,02,22,05,09,3.60
2008,02,22,05,10,3.60
2008,02,22,05,11,3.60
2008,02,22,05,12,3.60
2008,02,22,05,13,3.60
2008,02,22,05,14,3.60
2008,02,22,05,15,3.60
2008,02,22,05,16,3.60
2008,02,22,05,17,3.70
2008,02,22,05,18,3.70
2008,02,22,05,19,3.70
2008,02,22,05,20,3.70
2008,02,22,05,21,3.70
2008,02,22,05,22,3.70
2008,02,22,05,23,3.70
2008,02,22,05,24,3.70
2008,02,22,05,25,3.80
2008,02,22,05,26,3.80
2008,02,22,05,27,3.80
2008,02,22,05,28,3.80
2008,02,22,05,29,3.80
2008,02,22,05,30,3.80
2008,02,22,05,31,3.80
2008,02,22,05,32,3.80
2008,02,22,05,33,3.80
2008,02,22,05,34,3.80
2008,02,22,05,35,3.80
2008,02,22,05,36,3.80
2008,02,22,05,37,3.80
2008,02,22,05,38,3.80
2008,02,22,05,39,3.80
2008,02,22,05,40,3.80
2008,02,22,05,41,3.80
2008,02,22,05,42,3.80
2008,02,22,05,43,3.80
2008,02,22,05,44,3.80
2008,02,22,05,45,3.80
2008,02,22,05,46,3.80
2008,02,22,05,47,3.80
2008,02,22,05,48,3.80
2008,02,22,05,49,3.80
2008,02,22,05,50,3.80
2008,02,22,05,51,3.80
2008,02,22,05,52,3.80
2008,02,22,05,53,3.80
2008,02,22,05,54,3.90
2008,02,22,05,55,3.90
2008,02,22,05,56,3.90
2008,02,22,05,57,3.90
2008,02,22,05,58,3.90
2008,02,22,05,59,3.90
2008,02,22,06,00,3.90
2008,02,22,06,01,3.90
2008,02,22,06,02,3.90
2008,02,22,06,03,4.00
2008,02,22,06,04,4.00
2008,02,22,06,05,4.00
2008,02,22,06,06,4.00
2008,02,22,06,07,4.00
2008,02,22,06,08,4.00
2008,02,22,06,09,4.00
2008,02,22,06,10,4.00
2008,02,22,06,11,4.00
2008,02,22,06,12,4.00
2008,02,22,06,13,4.00
2008,02,22,06,14,4.00
2008,02,22,06,15,4.00
2008,02,22,06,16,4.00
2008,02,22,06,17,4.00
2008,02,22,06,18,4.00
2008,02,22,06,19,4.00
2008,02,22,06,20,4.00
2008,02,22,06,21,4.00
2008,02,22,06,22,4.00
2008,02,22,06,23,4.00
2008,02,22,06,24,4.00
2008,02,22,06,25,4.00
2008,02,22,06,26,4.00
2008,02,22,06,27,4.00
2008,02,22,06,28,4.00
2008,02,22,06,29,4.00
2008,02,22,06,30,4.10
2008,02,22,06,31,4.10
2008,02,22,06,32,4.10
2008,02,22,06,33,4.10
2008,02,22,06,34,4.10
2008,02,22,06,35,4.10
2008,02,22,06,36,4.10
2008,02,22,06,37,4.10
2008,02,22,06,38,4.10
2008,02,22,06,39,4.10
2008,02,22,06,40,4.10
2008,02,22,06,41,4.10
2008,02,22,06,42,4.10
2008,02,22,06,43,4.10
2008,02,22,06,44,4.10
2008,02,22,06,45,4.10
2008,02,22,06,46,4.10
2008,02,22,06,47,4.10
2008,02,22,06,48,4.10
2008,02,22,06,49,4.10
2008,02,22,06,50,4.10
2008,02,22,06,51,4.10
2008,02,22,06,52,4.10
2008,02,22,06,53,4.10
2008,02,22,06,54,4.10
2008,02,22,06,55,4.10
2008,02,22,06,56,4.10
2008,02,22,06,57,4.10
2008,02,22,06,58,4.10
2008,02,22,06,59,4.10
2008,02,22,07,00,4.20
2008,02,22,07,01,4.20
2008,02,22,07,02,4.20
2008,02,22,07,03,4.20
2008,02,22,07,04,4.20
2008,02,22,07,05,4.20
2008,02,22,07,06,4.20
2008,02,22,07,07,4.20
2008,02,22,07,08,4.20
2008,02,22,07,09,4.20
2008,02,22,07,10,4.20
2008,02,22,07,11,4.20
2008,02,22,07,12,4.20
2008,02,22,07,13,4.20
2008,02,22,07,14,4.20
2008,02,22,07,15,4.20
2008,02,22,07,16,4.20
2008,02,22,07,17,4.20
2008,02,22,07,18,4.20
2008,02,22,07,19,4.20
2008,02,22,07,20,4.20
2008,02,22,07,21,4.20
2008,02,22,07,22,4.20
2008,02,22,07,23,4.20
2008,02,22,07,24,4.20
2008,02,22,07,25,4.20
2008,02,22,07,26,4.20
2008,02,22,07,27,4.20
2008,02,22,07,28,4.20
2008,02,22,07,29,4.20
2008,02,22,07,30,4.20
2008,02,22,07,31,4.20
2008,02,22,07,32,4.20
2008,02,22,07,33,4.20
2008,02,22,07,34,4.20
2008,02,22,07,35,4.20
2008,02,22,07,36,4.20
2008,02,22,07,37,4.20
2008,02,22,07,38,4.20
2008,02,22,07,39,4.20
2008,02,22,07,40,4.20
2008,02,22,07,41,4.20
2008,02,22,07,42,4.20
2008,02,22,07,43,4.20
2008,02,22,07,44,4.20
2008,02,22,07,45,4.20
2008,02,22,07,46,4.20
2008,02,22,07,47,4.20
2008,02,22,07,48,4.20
2008,02,22,07,49,4.20
2008,02,22,07,50,4.20
2008,02,22,07,51,4.20
2008,02,22,07,52,4.20
2008,02,22,07,53,4.20
2008,02,22,07,54,4.20
2008,02,22,07,55,4.20
2008,02,22,07,56,4.20
2008,02,22,07,57,4.20
2008,02,22,07,58,4.20
2008,02,22,07,59,4.20
2008,02,22,08,00,4.20
2008,02,22,08,01,4.20
2008,02,22,08,02,4.20
2008,02,22,08,03,4.20
2008,02,22,08,04,4.20
2008,02,22,08,05,4.20
2008,02,22,08,06,4.20
2008,02,22,08,07,4.20
2008,02,22,08,08,4.20
2008,02,22,08,09,4.20
2008,02,22,08,10,4.20
2008,02,22,08,11,4.20
2008,02,22,08,12,4.30
2008,02,22,08,13,4.30
2008,02,22,08,14,4.30
2008,02,22,08,15,4.30
2008,02,22,08,16,4.40
2008,02,22,08,17,4.40
2008,02,22,08,18,4.40
2008,02,22,08,19,4.40
2008,02,22,08,20,4.50
2008,02,22,08,21,4.50
2008,02,22,08,22,4.50
2008,02,22,08,23,4.50
2008,02,22,08,24,4.60
2008,02,22,08,25,4.60
2008,02,22,08,26,4.60
2008,02,22,08,27,4.60
2008,02,22,08,28,4.70
2008,02,22,08,29,4.70
2008,02,22,08,30,4.80
2008,02,22,08,31,4.90
2008,02,22,08,32,5.00
2008,02,22,08,33,5.10
2008,02,22,08,34,5.10
2008,02,22,08,35,5.20
2008,02,22,08,36,5.30
2008,02,22,08,37,5.30
2008,02,22,08,38,5.30
2008,02,22,08,39,5.40
2008,02,22,08,40,5.40
2008,02,22,08,41,5.50
2008,02,22,08,42,5.50
2008,02,22,08,43,5.60
2008,02,22,08,44,5.60
2008,02,22,08,45,5.70
2008,02,22,08,46,5.70
2008,02,22,08,47,5.70
2008,02,22,08,48,5.80
2008,02,22,08,49,5.90
2008,02,22,08,50,6.00
2008,02,22,08,51,6.00
2008,02,22,08,52,6.10
2008,02,22,08,53,6.10
2008,02,22,08,54,6.20
2008,02,22,08,55,6.20
2008,02,22,08,56,6.20
2008,02,22,08,57,6.20
2008,02,22,08,58,6.20
2008,02,22,08,59,6.20
2008,02,22,09,00,6.20
2008,02,22,09,01,6.20
2008,02,22,09,02,6.20
2008,02,22,09,03,6.20
2008,02,22,09,04,6.30
2008,02,22,09,05,6.30
2008,02,22,09,06,6.40
2008,02,22,09,07,6.40
2008,02,22,09,08,6.50
2008,02,22,09,09,6.60
2008,02,22,09,10,6.60
2008,02,22,09,11,6.60
2008,02,22,09,12,6.60
2008,02,22,09,13,6.60
2008,02,22,09,14,6.70
2008,02,22,09,15,6.70
2008,02,22,09,16,6.70
2008,02,22,09,17,6.70
2008,02,22,09,18,6.80
2008,02,22,09,19,6.90
2008,02,22,09,20,7.00
2008,02,22,09,21,7.00
2008,02,22,09,22,7.10
2008,02,22,09,23,7.10
2008,02,22,09,24,7.00
2008,02,22,09,25,7.00
2008,02,22,09,26,7.10
2008,02,22,09,27,7.10
2008,02,22,09,28,7.20
2008,02,22,09,29,7.20
2008,02,22,09,30,7.30
2008,02,22,09,31,7.30
2008,02,22,09,32,7.40
2008,02,22,09,33,7.50
2008,02,22,09,34,7.50
2008,02,22,09,35,7.50
2008,02,22,09,36,7.60
2008,02,22,09,37,7.70
2008,02,22,09,38,7.80
2008,02,22,09,39,7.80
2008,02,22,09,40,7.80
2008,02,22,09,41,7.80
2008,02,22,09,42,7.80
2008,02,22,09,43,7.80
2008,02,22,09,44,7.80
2008,02,22,09,45,7.80
2008,02,22,09,46,7.80
2008,02,22,09,47,7.90
2008,02,22,09,48,7.90
2008,02,22,09,49,8.00
2008,02,22,09,50,8.00
2008,02,22,09,51,8.00
2008,02,22,09,52,8.00
2008,02,22,09,53,8.00
2008,02,22,09,54,8.00
2008,02,22,09,55,8.00
2008,02,22,09,56,8.00
2008,02,22,09,57,8.00
2008,02,22,09,58,8.00
2008,02,22,09,59,8.00
2008,02,22,10,00,8.10
2008,02,22,10,01,8.10
2008,02,22,10,02,8.10
2008,02,22,10,03,8.10
2008,02,22,10,04,8.10
2008,02,22,10,05,8.10
2008,02,22,10,06,8.20
2008,02,22,10,07,8.20
2008,02,22,10,08,8.20
2008,02,22,10,09,8.20
2008,02,22,10,10,8.20
2008,02,22,10,11,8.20
2008,02,22,10,12,8.20
2008,02,22,10,13,8.20
2008,02,22,10,14,8.20
2008,02,22,10,15,8.20
2008,02,22,10,16,8.20
2008,02,22,10,17,8.20
2008,02,22,10,18,8.20
2008,02,22,10,19,8.20
2008,02,22,10,20,8.20
2008,02,22,10,21,8.30
2008,02,22,10,22,8.30
2008,02,22,10,23,8.30
2008,02,22,10,24,8.30
2008,02,22,10,25,8.30
2008,02,22,10,26,8.40
2008,02,22,10,27,8.40
2008,02,22,10,28,8.50
2008,02,22,10,29,8.50
2008,02,22,10,30,8.60
2008,02,22,10,31,8.60
2008,02,22,10,32,8.70
2008,02,22,10,33,8.70
2008,02,22,10,34,8.80
2008,02,22,10,35,8.80
2008,02,22,10,36,8.90
2008,02,22,10,37,8.90
2008,02,22,10,38,8.90
2008,02,22,10,39,8.90
2008,02,22,10,40,8.80
2008,02,22,10,41,8.80
2008,02,22,10,42,8.70
2008,02,22,10,43,8.70
2008,02,22,10,44,8.70
2008,02,22,10,45,8.70
2008,02,22,10,46,8.70
2008,02,22,10,47,8.70
2008,02,22,10,48,8.80
2008,02,22,10,49,8.80
2008,02,22,10,50,8.80
2008,02,22,10,51,8.90
2008,02,22,10,52,8.90
2008,02,22,10,53,8.90
2008,02,22,10,54,8.90
2008,02,22,10,55,8.90
2008,02,22,10,56,8.90
2008,02,22,10,57,8.90
2008,02,22,10,58,9.00
2008,02,22,10,59,9.10
2008,02,22,11,00,9.20
2008,02,22,11,01,9.20
2008,02,22,11,02,9.20
2008,02,22,11,03,9.30
2008,02,22,11,04,9.30
2008,02,22,11,05,9.20
2008,02,22,11,06,9.20
2008,02,22,11,07,9.20
2008,02,22,11,08,9.20
2008,02,22,11,09,9.20
2008,02,22,11,10,9.20
2008,02,22,11,11,9.20
2008,02,22,11,12,9.30
2008,02,22,11,13,9.30
2008,02,22,11,14,9.20
2008,02,22,11,15,9.20
2008,02,22,11,16,9.20
2008,02,22,11,17,9.30
2008,02,22,11,18,9.40
2008,02,22,11,19,9.50
2008,02,22,11,20,9.60
2008,02,22,11,21,9.70
2008,02,22,11,22,9.70
2008,02,22,11,23,9.70
2008,02,22,11,24,9.70
2008,02,22,11,25,9.70
2008,02,22,11,26,9.70
2008,02,22,11,27,9.80
2008,02,22,11,28,9.80
2008,02,22,11,29,9.90
2008,02,22,11,30,9.80
2008,02,22,11,31,9.80
2008,02,22,11,32,9.70
2008,02,22,11,33,9.70
2008,02,22,11,34,9.70
2008,02,22,11,35,9.70
2008,02,22,11,36,9.70
2008,02,22,11,37,9.70
2008,02,22,11,38,9.60
2008,02,22,11,39,9.60
2008,02,22,11,40,9.60
2008,02,22,11,41,9.70
2008,02,22,11,42,9.70
2008,02,22,11,43,9.70
2008,02,22,11,44,9.70
2008,02,22,11,45,9.70
2008,02,22,11,46,9.80
2008,02,22,11,47,9.80
2008,02,22,11,48,9.90
2008,02,22,11,49,9.90
2008,02,22,11,50,9.90
2008,02,22,11,51,9.90
2008,02,22,11,52,10.00
2008,02,22,11,53,10.10
2008,02,22,11,54,10.10
2008,02,22,11,55,10.10
2008,02,22,11,56,10.10
2008,02,22,11,57,10.10
2008,02,22,11,58,10.00
2008,02,22,11,59,9.90
2008,02,22,12,00,9.90
2008,02,22,12,01,9.90
2008,02,22,12,02,9.90
2008,02,22,12,03,9.90
2008,02,22,12,04,9.90
2008,02,22,12,05,9.90
2008,02,22,12,06,9.90
2008,02,22,12,07,9.90
2008,02,22,12,08,9.90
2008,02,22,12,09,9.90
2008,02,22,12,10,9.90
2008,02,22,12,11,10.10
2008,02,22,12,12,10.10
2008,02,22,12,13,10.10
2008,02,22,12,14,10.10
2008,02,22,12,15,10.20
2008,02,22,12,16,10.20
2008,02,22,12,17,10.30
2008,02,22,12,18,10.40
2008,02,22,12,19,10.40
2008,02,22,12,20,10.40
2008,02,22,12,21,10.40
2008,02,22,12,22,10.40
2008,02,22,12,23,10.40
2008,02,22,12,24,10.40
2008,02,22,12,25,10.40
2008,02,22,12,26,10.40
2008,02,22,12,27,10.50
2008,02,22,12,28,10.60
2008,02,22,12,29,10.60
2008,02,22,12,30,10.60
2008,02,22,12,31,10.60
2008,02,22,12,32,10.60
2008,02,22,12,33,10.60
2008,02,22,12,34,10.60
2008,02,22,12,35,10.60
2008,02,22,12,36,10.60
2008,02,22,12,37,10.60
2008,02,22,12,38,10.60
2008,02,22,12,39,10.60
2008,02,22,12,40,10.60
2008,02,22,12,41,10.70
2008,02,22,12,42,10.70
2008,02,22,12,43,10.70
2008,02,22,12,44,10.80
2008,02,22,12,45,10.90
2008,02,22,12,46,10.90
2008,02,22,12,47,11.00
2008,02,22,12,48,11.10
2008,02,22,12,49,11.10
2008,02,22,12,50,11.10
2008,02,22,12,51,11.10
2008,02,22,12,52,11.10
2008,02,22,12,53,11.10
2008,02,22,12,54,11.10
2008,02,22,12,55,11.10
2008,02,22,12,56,11.00
2008,02,22,12,57,10.90
2008,02,22,12,58,10.90
2008,02,22,12,59,10.90
2008,02,22,13,00,10.90
2008,02,22,13,01,10.90
2008,02,22,13,02,10.90
2008,02,22,13,03,10.90
2008,02,22,13,04,10.90
2008,02,22,13,05,10.90
2008,02,22,13,06,11.00
2008,02,22,13,07,11.20
2008,02,22,13,08,11.30
2008,02,22,13,09,11.40
2008,02,22,13,10,11.40
2008,02,22,13,11,11.40
2008,02,22,13,12,11.40
2008,02,22,13,13,11.40
2008,02,22,13,14,11.40
2008,02,22,13,15,11.60
2008,02,22,13,16,11.60
2008,02,22,13,17,11.70
2008,02,22,13,18,11.60
2008,02,22,13,19,11.60
2008,02,22,13,20,11.70
2008,02,22,13,21,11.80
2008,02,22,13,22,11.80
2008,02,22,13,23,11.80
2008,02,22,13,24,11.70
2008,02,22,13,25,11.70
2008,02,22,13,26,11.70
2008,02,22,13,27,11.60
2008,02,22,13,28,11.60
2008,02,22,13,29,11.60
2008,02,22,13,30,11.70
2008,02,22,13,31,11.80
2008,02,22,13,32,11.80
2008,02,22,13,33,11.80
2008,02,22,13,34,12.00
2008,02,22,13,35,12.10
2008,02,22,13,36,12.20
2008,02,22,13,37,12.30
2008,02,22,13,38,12.30
2008,02,22,13,39,12.30
2008,02,22,13,40,12.30
2008,02,22,13,41,12.30
2008,02,22,13,42,12.30
2008,02,22,13,43,12.30
2008,02,22,13,44,12.20
2008,02,22,13,45,12.10
2008,02,22,13,46,12.10
2008,02,22,13,47,12.10
2008,02,22,13,48,12.10
2008,02,22,13,49,12.10
2008,02,22,13,50,12.10
2008,02,22,13,51,12.00
2008,02,22,13,52,12.00
2008,02,22,13,53,12.10
2008,02,22,13,54,12.10
2008,02,22,13,55,12.20
2008,02,22,13,56,12.30
2008,02,22,13,57,12.30
2008,02,22,13,58,12.40
2008,02,22,13,59,12.40
2008,02,22,14,00,12.50
2008,02,22,14,01,12.60
2008,02,22,14,02,12.60
2008,02,22,14,03,12.60
2008,02,22,14,04,12.60
2008,02,22,14,05,12.70
2008,02,22,14,06,12.80
2008,02,22,14,07,12.80
2008,02,22,14,08,12.90
2008,02,22,14,09,13.00
2008,02,22,14,10,13.00
2008,02,22,14,11,13.00
2008,02,22,14,12,13.00
2008,02,22,14,13,12.90
2008,02,22,14,14,12.90
2008,02,22,14,15,12.80
2008,02,22,14,16,12.80
2008,02,22,14,17,12.80
2008,02,22,14,18,12.80
2008,02,22,14,19,12.80
2008,02,22,14,20,12.80
2008,02,22,14,21,12.80
2008,02,22,14,22,12.80
2008,02,22,14,23,12.80
2008,02,22,14,24,12.70
2008,02,22,14,25,12.70
2008,02,22,14,26,12.60
2008,02,22,14,27,12.60
2008,02,22,14,28,12.60
2008,02,22,14,29,12.70
2008,02,22,14,30,12.70
2008,02,22,14,31,12.70
2008,02,22,14,32,12.70
2008,02,22,14,33,12.70
2008,02,22,14,34,12.70
2008,02,22,14,35,12.70
2008,02,22,14,36,12.60
2008,02,22,14,37,12.70
2008,02,22,14,38,12.70
2008,02,22,14,39,12.70
2008,02,22,14,40,12.70
2008,02,22,14,41,12.70
2008,02,22,14,42,12.70
2008,02,22,14,43,12.80
2008,02,22,14,44,12.80
2008,02,22,14,45,12.80
2008,02,22,14,46,12.80
2008,02,22,14,47,12.70
2008,02,22,14,48,12.70
2008,02,22,14,49,12.70
2008,02,22,14,50,12.70
2008,02,22,14,51,12.80
2008,02,22,14,52,12.80
2008,02,22,14,53,12.80
2008,02,22,14,54,12.80
2008,02,22,14,55,12.80
2008,02,22,14,56,12.80
2008,02,22,14,57,12.80
2008,02,22,14,58,12.80
2008,02,22,14,59,12.80
2008,02,22,15,00,12.80
2008,02,22,15,01,12.80
2008,02,22,15,02,12.80
2008,02,22,15,03,12.70
2008,02,22,15,04,12.70
2008,02,22,15,05,12.60
2008,02,22,15,06,12.60
2008,02,22,15,07,12.60
2008,02,22,15,08,12.60
2008,02,22,15,09,12.70
2008,02,22,15,10,12.70
2008,02,22,15,11,12.70
2008,02,22,15,12,12.80
2008,02,22,15,13,12.80
2008,02,22,15,14,12.80
2008,02,22,15,15,12.80
2008,02,22,15,16,12.80
2008,02,22,15,17,12.80
2008,02,22,15,18,12.70
2008,02,22,15,19,12.70
2008,02,22,15,20,12.70
2008,02,22,15,21,12.70
2008,02,22,15,22,12.80
2008,02,22,15,23,12.80
2008,02,22,15,24,12.70
2008,02,22,15,25,12.70
2008,02,22,15,26,12.60
2008,02,22,15,27,12.60
2008,02,22,15,28,12.60
2008,02,22,15,29,12.60
2008,02,22,15,30,12.60
2008,02,22,15,31,12.60
2008,02,22,15,32,12.60
2008,02,22,15,33,12.50
2008,02,22,15,34,12.50
2008,02,22,15,35,12.60
2008,02,22,15,36,12.60
2008,02,22,15,37,12.50
2008,02,22,15,38,12.50
2008,02,22,15,39,12.50
2008,02,22,15,40,12.40
2008,02,22,15,41,12.40
2008,02,22,15,42,12.40
2008,02,22,15,43,12.40
2008,02,22,15,44,12.40
2008,02,22,15,45,12.40
2008,02,22,15,46,12.40
2008,02,22,15,47,12.40
2008,02,22,15,48,12.40
2008,02,22,15,49,12.30
2008,02,22,15,50,12.30
2008,02,22,15,51,12.30
2008,02,22,15,52,12.30
2008,02,22,15,53,12.40
2008,02,22,15,54,12.50
2008,02,22,15,55,12.70
2008,02,22,15,56,12.70
2008,02,22,15,57,12.70
2008,02,22,15,58,12.80
2008,02,22,15,59,12.80
2008,02,22,16,00,12.70
2008,02,22,16,01,12.70
2008,02,22,16,02,12.70
2008,02,22,16,03,12.70
2008,02,22,16,04,12.70
2008,02,22,16,05,12.70
2008,02,22,16,06,12.70
2008,02,22,16,07,12.80
2008,02,22,16,08,12.80
2008,02,22,16,09,12.80
2008,02,22,16,10,12.70
2008,02,22,16,11,12.70
2008,02,22,16,12,12.60
2008,02,22,16,13,12.50
2008,02,22,16,14,12.40
2008,02,22,16,15,12.40
2008,02,22,16,16,12.30
2008,02,22,16,17,12.30
2008,02,22,16,18,12.30
2008,02,22,16,19,12.30
2008,02,22,16,20,12.20
2008,02,22,16,21,12.20
2008,02,22,16,22,12.20
2008,02,22,16,23,12.10
2008,02,22,16,24,12.10
2008,02,22,16,25,12.10
2008,02,22,16,26,12.10
2008,02,22,16,27,12.00
2008,02,22,16,28,12.00
2008,02,22,16,29,12.00
2008,02,22,16,30,11.90
2008,02,22,16,31,11.90
2008,02,22,16,32,11.80
2008,02,22,16,33,11.80
2008,02,22,16,34,11.80
2008,02,22,16,35,11.80
2008,02,22,16,36,11.70
2008,02,22,16,37,11.70
2008,02,22,16,38,11.70
2008,02,22,16,39,11.60
2008,02,22,16,40,11.60
2008,02,22,16,41,11.60
2008,02,22,16,42,11.60
2008,02,22,16,43,11.40
2008,02,22,16,44,11.40
2008,02,22,16,45,11.40
2008,02,22,16,46,11.40
2008,02,22,16,47,11.40
2008,02,22,16,48,11.30
2008,02,22,16,49,11.30
2008,02,22,16,50,11.20
2008,02,22,16,51,11.20
2008,02,22,16,52,11.10
2008,02,22,16,53,11.10
2008,02,22,16,54,11.10
2008,02,22,16,55,11.00
2008,02,22,16,56,10.90
2008,02,22,16,57,10.90
2008,02,22,16,58,10.80
2008,02,22,16,59,10.70
2008,02,22,17,00,10.70
2008,02,22,17,01,10.60
2008,02,22,17,02,10.60
2008,02,22,17,03,10.50
2008,02,22,17,04,10.40
2008,02,22,17,05,10.40
2008,02,22,17,06,10.30
2008,02,22,17,07,10.20
2008,02,22,17,08,10.20
2008,02,22,17,09,10.20
2008,02,22,17,10,10.10
2008,02,22,17,11,10.10
2008,02,22,17,12,10.10
2008,02,22,17,13,10.10
2008,02,22,17,14,10.10
2008,02,22,17,15,10.10
2008,02,22,17,16,10.00
2008,02,22,17,17,9.90
2008,02,22,17,18,9.90
2008,02,22,17,19,9.90
2008,02,22,17,20,9.90
2008,02,22,17,21,9.90
2008,02,22,17,22,9.80
2008,02,22,17,23,9.80
2008,02,22,17,24,9.80
2008,02,22,17,25,9.80
2008,02,22,17,26,9.80
2008,02,22,17,27,9.70
2008,02,22,17,28,9.70
2008,02,22,17,29,9.70
2008,02,22,17,30,9.70
2008,02,22,17,31,9.70
2008,02,22,17,32,9.70
2008,02,22,17,33,9.60
2008,02,22,17,34,9.60
2008,02,22,17,35,9.60
2008,02,22,17,36,9.60
2008,02,22,17,37,9.60
2008,02,22,17,38,9.50
2008,02,22,17,39,9.50
2008,02,22,17,40,9.50
2008,02,22,17,41,9.50
2008,02,22,17,42,9.50
2008,02,22,17,43,9.50
2008,02,22,17,44,9.50
2008,02,22,17,45,9.40
2008,02,22,17,46,9.40
2008,02,22,17,47,9.40
2008,02,22,17,48,9.30
2008,02,22,17,49,9.30
2008,02,22,17,50,9.30
2008,02,22,17,51,9.20
2008,02,22,17,52,9.20
2008,02,22,17,53,9.20
2008,02,22,17,54,9.20
2008,02,22,17,55,9.20
2008,02,22,17,56,9.20
2008,02,22,17,57,9.20
2008,02,22,17,58,9.20
2008,02,22,17,59,9.20
2008,02,22,18,00,9.20
2008,02,22,18,01,9.20
2008,02,22,18,02,9.20
2008,02,22,18,03,9.20
2008,02,22,18,04,9.20
2008,02,22,18,05,9.20
2008,02,22,18,06,9.10
2008,02,22,18,07,9.10
2008,02,22,18,08,9.10
2008,02,22,18,09,9.10
2008,02,22,18,10,9.10
2008,02,22,18,11,9.10
2008,02,22,18,12,9.10
2008,02,22,18,13,9.00
2008,02,22,18,14,9.00
2008,02,22,18,15,9.00
2008,02,22,18,16,8.90
2008,02,22,18,17,8.90
2008,02,22,18,18,8.90
2008,02,22,18,19,8.90
2008,02,22,18,20,8.80
2008,02,22,18,21,8.80
2008,02,22,18,22,8.80
2008,02,22,18,23,8.80
2008,02,22,18,24,8.70
2008,02,22,18,25,8.70
2008,02,22,18,26,8.70
2008,02,22,18,27,8.70
2008,02,22,18,28,8.70
2008,02,22,18,29,8.70
2008,02,22,18,30,8.70
2008,02,22,18,31,8.60
2008,02,22,18,32,8.60
2008,02,22,18,33,8.50
2008,02,22,18,34,8.50
2008,02,22,18,35,8.50
2008,02,22,18,36,8.40
2008,02,22,18,37,8.40
2008,02,22,18,38,8.40
2008,02,22,18,39,8.30
2008,02,22,18,40,8.30
2008,02,22,18,41,8.30